When you browse on this site, cookies collect data to enhance your experience and personalize the content and advertising you see.
Visit our Privacy Policy to learn more. By continuing to use the site, you agree to this use of cookies and data.

Hourly Weather Klyakovo

Today, 9 July, Thursday

Time Temperature Precipitation Wind Pressure Humidity
00:00 +12°C° 0 mm 2 mps 742 mmHg 96%
01:00 +12°C° 0 mm 2 mps 742 mmHg 96%
02:00 +12°C° 0 mm 2 mps 742 mmHg 98%
03:00 +12°C° 0 mm 2 mps 742 mmHg 97%
04:00 +12°C° 0 mm 1 mps 742 mmHg 95%
05:00 +13°C° 0 mm 1 mps 742 mmHg 94%
06:00 +14°C° 0.2 mm 1 mps 742 mmHg 90%
07:00 +15°C° 0.2 mm 1 mps 742 mmHg 85%
08:00 +18°C° 0.2 mm 1 mps 742 mmHg 81%
09:00 +19°C° 0.4 mm 1 mps 742 mmHg 75%
10:00 +19°C° 0.4 mm 2 mps 743 mmHg 69%
11:00 +19°C° 0.4 mm 3 mps 743 mmHg 63%
12:00 +19°C° 0.4 mm 3 mps 743 mmHg 65%
13:00 +19°C° 0.4 mm 3 mps 743 mmHg 66%
14:00 +20°C° 0.4 mm 3 mps 743 mmHg 68%
15:00 +19°C° 0.7 mm 3 mps 743 mmHg 73%
16:00 +18°C° 0.7 mm 3 mps 744 mmHg 78%
17:00 +18°C° 0.7 mm 3 mps 744 mmHg 83%
18:00 +16°C° 0.1 mm 2 mps 744 mmHg 85%
19:00 +15°C° 0.1 mm 2 mps 744 mmHg 87%
20:00 +14°C° 0.1 mm 1 mps 744 mmHg 90%
21:00 +13°C° 0 mm 1 mps 745 mmHg 91%
22:00 +12°C° 0 mm 2 mps 745 mmHg 91%
23:00 +10°C° 0 mm 2 mps 746 mmHg 92%

Tomorrow, 10 July, Friday

Time Temperature Precipitation Wind Pressure Humidity
00:00 +10°C° 0 mm 2 mps 746 mmHg 92%
01:00 +9°C° 0 mm 2 mps 746 mmHg 92%
02:00 +8°C° 0 mm 2 mps 747 mmHg 92%
03:00 +9°C° 0 mm 2 mps 747 mmHg 91%
04:00 +9°C° 0 mm 2 mps 747 mmHg 90%
05:00 +11°C° 0 mm 1 mps 747 mmHg 89%
06:00 +13°C° 0 mm 2 mps 747 mmHg 81%
07:00 +15°C° 0 mm 2 mps 748 mmHg 73%
08:00 +18°C° 0 mm 2 mps 748 mmHg 65%
09:00 +19°C° 0 mm 3 mps 748 mmHg 60%
10:00 +20°C° 0 mm 3 mps 748 mmHg 55%
11:00 +21°C° 0 mm 3 mps 748 mmHg 50%
12:00 +21°C° 0 mm 3 mps 748 mmHg 49%
13:00 +22°C° 0 mm 4 mps 748 mmHg 48%
14:00 +22°C° 0 mm 4 mps 747 mmHg 47%
15:00 +20°C° 0.1 mm 3 mps 747 mmHg 57%
16:00 +19°C° 0.1 mm 3 mps 747 mmHg 67%
17:00 +17°C° 0.1 mm 2 mps 747 mmHg 78%
18:00 +16°C° 0.2 mm 3 mps 747 mmHg 81%
19:00 +14°C° 0.2 mm 3 mps 746 mmHg 84%
20:00 +14°C° 0.2 mm 3 mps 746 mmHg 88%
21:00 +14°C° 0.3 mm 3 mps 746 mmHg 90%
22:00 +14°C° 0.3 mm 3 mps 746 mmHg 92%
23:00 +14°C° 0.3 mm 4 mps 746 mmHg 94%

Day after tomorrow, 11 July, Saturday

Time Temperature Precipitation Wind Pressure Humidity
00:00 +15°C° 0.1 mm 4 mps 745 mmHg 95%
01:00 +15°C° 0.1 mm 4 mps 745 mmHg 96%
02:00 +15°C° 0.1 mm 4 mps 745 mmHg 96%
03:00 +17°C° 0 mm 3 mps 745 mmHg 96%
04:00 +17°C° 0 mm 3 mps 746 mmHg 96%
05:00 +17°C° 0 mm 3 mps 746 mmHg 96%
06:00 +18°C° 0 mm 3 mps 746 mmHg 92%
07:00 +19°C° 0 mm 3 mps 746 mmHg 89%
08:00 +20°C° 0 mm 4 mps 746 mmHg 86%
09:00 +21°C° 0 mm 4 mps 746 mmHg 82%
10:00 +22°C° 0 mm 4 mps 746 mmHg 78%
11:00 +23°C° 0 mm 4 mps 746 mmHg 74%
12:00 +25°C° 0.4 mm 4 mps 746 mmHg 74%
13:00 +25°C° 0.4 mm 5 mps 746 mmHg 74%
14:00 +26°C° 0.4 mm 5 mps 745 mmHg 74%
15:00 +26°C° 0.7 mm 5 mps 745 mmHg 79%
16:00 +25°C° 0.7 mm 4 mps 745 mmHg 84%
17:00 +25°C° 0.7 mm 4 mps 745 mmHg 90%
18:00 +24°C° 0.4 mm 3 mps 745 mmHg 91%
19:00 +22°C° 0.4 mm 3 mps 746 mmHg 93%
20:00 +21°C° 0.4 mm 2 mps 746 mmHg 95%
21:00 +20°C° 0 mm 2 mps 746 mmHg 96%
22:00 +19°C° 0 mm 2 mps 746 mmHg 96%
23:00 +20°C° 0 mm 1 mps 747 mmHg 97%

12 July, Sunday

Time Temperature Precipitation Wind Pressure Humidity
00:00 +19°C° 0.2 mm 1 mps 747 mmHg 97%
01:00 +18°C° 0.2 mm 1 mps 747 mmHg 97%
02:00 +18°C° 0.2 mm 1 mps 747 mmHg 96%
03:00 +16°C° 0.1 mm 1 mps 747 mmHg 96%
04:00 +16°C° 0.1 mm 1 mps 747 mmHg 95%
05:00 +16°C° 0.1 mm 1 mps 747 mmHg 94%
06:00 +16°C° 0.1 mm 1 mps 747 mmHg 94%
07:00 +16°C° 0.1 mm 1 mps 748 mmHg 93%
08:00 +16°C° 0.1 mm 1 mps 748 mmHg 93%
09:00 +18°C° 0 mm 1 mps 748 mmHg 87%
10:00 +19°C° 0 mm 1 mps 748 mmHg 81%
11:00 +20°C° 0 mm 1 mps 748 mmHg 75%
12:00 +20°C° 0 mm 1 mps 748 mmHg 77%
13:00 +18°C° 0 mm 2 mps 748 mmHg 79%
14:00 +18°C° 0 mm 2 mps 748 mmHg 81%
15:00 +18°C° 0 mm 2 mps 748 mmHg 78%
16:00 +18°C° 0 mm 2 mps 748 mmHg 75%
17:00 +18°C° 0 mm 2 mps 747 mmHg 73%
18:00 +17°C° 0 mm 3 mps 747 mmHg 75%
19:00 +16°C° 0 mm 3 mps 747 mmHg 78%
20:00 +16°C° 0 mm 3 mps 748 mmHg 80%
21:00 +14°C° 0 mm 3 mps 747 mmHg 81%
22:00 +14°C° 0 mm 3 mps 747 mmHg 83%
23:00 +13°C° 0 mm 3 mps 747 mmHg 84%

13 July, Monday

Time Temperature Precipitation Wind Pressure Humidity
00:00 +13°C° 0 mm 3 mps 747 mmHg 84%
01:00 +13°C° 0 mm 3 mps 747 mmHg 85%
02:00 +13°C° 0 mm 3 mps 747 mmHg 85%
03:00 +13°C° 0 mm 3 mps 747 mmHg 84%
04:00 +13°C° 0 mm 3 mps 746 mmHg 84%
05:00 +13°C° 0 mm 3 mps 746 mmHg 83%
06:00 +14°C° 0.1 mm 3 mps 746 mmHg 83%
07:00 +14°C° 0.1 mm 3 mps 746 mmHg 82%
08:00 +16°C° 0.1 mm 3 mps 746 mmHg 82%
09:00 +16°C° 0.3 mm 3 mps 746 mmHg 85%
10:00 +16°C° 0.3 mm 2 mps 746 mmHg 88%
11:00 +16°C° 0.3 mm 2 mps 746 mmHg 92%
12:00 +16°C° 0.2 mm 2 mps 746 mmHg 91%
13:00 +17°C° 0.2 mm 3 mps 745 mmHg 91%
14:00 +17°C° 0.2 mm 3 mps 745 mmHg 90%
15:00 +17°C° 0 mm 3 mps 745 mmHg 87%
16:00 +18°C° 0 mm 3 mps 744 mmHg 85%
17:00 +18°C° 0 mm 3 mps 744 mmHg 82%
18:00 +18°C° 0 mm 3 mps 744 mmHg 83%
19:00 +18°C° 0 mm 3 mps 744 mmHg 85%
20:00 +18°C° 0 mm 3 mps 744 mmHg 86%
21:00 +17°C° 0 mm 3 mps 744 mmHg 88%
22:00 +17°C° 0 mm 3 mps 743 mmHg 90%
23:00 +16°C° 0 mm 3 mps 743 mmHg 92%

14 July, Tuesday

Time Temperature Precipitation Wind Pressure Humidity
00:00 +16°C° 0 mm 3 mps 743 mmHg 92%
01:00 +16°C° 0 mm 3 mps 743 mmHg 91%
02:00 +16°C° 0 mm 3 mps 742 mmHg 90%
03:00 +16°C° 0.3 mm 3 mps 742 mmHg 92%
04:00 +16°C° 0.3 mm 3 mps 742 mmHg 94%
05:00 +16°C° 0.3 mm 3 mps 742 mmHg 97%
06:00 +16°C° 0.5 mm 3 mps 741 mmHg 97%
07:00 +15°C° 0.5 mm 4 mps 741 mmHg 97%
08:00 +15°C° 0.5 mm 4 mps 741 mmHg 97%
09:00 +17°C° 0.2 mm 4 mps 741 mmHg 96%
10:00 +17°C° 0.2 mm 4 mps 740 mmHg 96%
11:00 +18°C° 0.2 mm 4 mps 740 mmHg 95%
12:00 +18°C° 1.1 mm 4 mps 740 mmHg 95%
13:00 +18°C° 1.1 mm 4 mps 739 mmHg 96%
14:00 +18°C° 1.1 mm 4 mps 739 mmHg 96%
15:00 +19°C° 0.4 mm 4 mps 738 mmHg 96%
16:00 +19°C° 0.4 mm 3 mps 738 mmHg 96%
17:00 +19°C° 0.4 mm 3 mps 738 mmHg 96%
18:00 +19°C° 1 mm 3 mps 737 mmHg 96%
19:00 +19°C° 1 mm 3 mps 737 mmHg 97%
20:00 +18°C° 1 mm 2 mps 737 mmHg 98%
21:00 +18°C° 0.7 mm 2 mps 737 mmHg 98%
22:00 +18°C° 0.7 mm 2 mps 736 mmHg 99%
23:00 +18°C° 0.7 mm 2 mps 736 mmHg 99%
Show more